Winter Haven, FL

3:39 PM EDT on April 26, 2017 (GMT -0400)
Winter Haven's-Gilbert

Weather History for KGIF - November, 2013

Change the Weather History Date:

Friday, November 1, 2013

  Actual Average Record
Temperature  
Mean Temperature 78 °F -  
Max Temperature 88 °F 81 °F 91 °F (1951)
Min Temperature 70 °F 62 °F 38 °F (1993)
Cooling Degree Days 14    
Growing Degree Days 28 (Base 50)    
Moisture  
Dew Point 67 °F    
Average Humidity 73    
Maximum Humidity 93    
Minimum Humidity 43    
Precipitation  
Precipitation 0.00 in - - ()
Sea Level Pressure  
Sea Level Pressure 29.96 in    
Wind  
Wind Speed 7 mph (SSW)    
Max Wind Speed 16 mph    
Max Gust Speed 22 mph    
Visibility 10 miles    
Events      
Averages and records for this station are not official NWS values.
T = Trace of Precipitation, MM = Missing Value Source: NWS Daily Summary

Daily Weather History Graph

Daily Weather History Graph

Search for Another Location

Airport or City:

Trip Planner

Search our weather history database for the weather conditions in past years. The results will help you decide how hot, cold, wet, or windy it might be!

Date:

Astronomy

Nov. 01, 2013 Rise Set
Actual Time 7:38 AM EDT 6:42 PM EDT
Civil Twilight 7:14 AM EDT 7:06 PM EDT
Nautical Twilight 6:46 AM EDT 7:34 PM EDT
Astronomical Twilight 6:18 AM EDT 8:01 PM EDT
Moon 5:38 AM EDT (11/1) 5:27 PM EDT (11/1)
Length of Visible Light 11h 52m
Length of Day
11h 03m
Waning Crescent, 4% of the Moon is Illuminated
Nov 1
Waning Crescent
Nov 3
New
Nov 10
First Quarter
Nov 17
Full
Nov 25
Last Quarter

Hourly Weather History & Observations

Time (EDT) Temp. Heat Index Dew Point Humidity Pressure Visibility Wind Dir Wind Speed Gust Speed Precip Events Conditions
12:53 AM 72.0 °F - 66.9 °F 84% 30.03 in 10.0 mi SSW 4.6 mph - N/A   Clear
1:53 AM 73.0 °F - 66.9 °F 81% 30.01 in 10.0 mi South 6.9 mph - N/A   Partly Cloudy
2:53 AM 71.1 °F - 66.9 °F 87% 30.00 in 10.0 mi South 3.5 mph - N/A   Clear
3:53 AM 71.1 °F - 68.0 °F 90% 29.99 in 10.0 mi South 4.6 mph - N/A   Partly Cloudy
4:53 AM 71.1 °F - 68.0 °F 90% 29.99 in 10.0 mi Calm Calm - N/A   Clear
5:53 AM 71.1 °F - 68.0 °F 90% 29.99 in 10.0 mi SSE 4.6 mph - N/A   Clear
6:53 AM 71.1 °F - 68.0 °F 90% 30.00 in 10.0 mi South 5.8 mph - N/A   Clear
7:53 AM 70.0 °F - 68.0 °F 93% 30.00 in 10.0 mi South 5.8 mph - N/A   Clear
8:53 AM 72.0 °F - 69.1 °F 91% 30.01 in 10.0 mi South 4.6 mph - N/A   Clear
9:53 AM 75.9 °F - 69.1 °F 79% 30.01 in 10.0 mi South 8.1 mph - N/A   Clear
10:53 AM 79.0 °F - 68.0 °F 69% 30.00 in 10.0 mi South 11.5 mph - N/A   Clear
11:53 AM 84.0 °F 86.3 °F 66.0 °F 55% 29.98 in 10.0 mi South 11.5 mph - N/A   Clear
12:53 PM 84.0 °F 85.8 °F 64.9 °F 53% 29.96 in 10.0 mi South 16.1 mph - N/A   Clear
1:53 PM 87.1 °F 88.3 °F 64.0 °F 46% 29.93 in 10.0 mi SSW 16.1 mph 21.9 mph N/A   Partly Cloudy
2:53 PM 87.1 °F 87.5 °F 62.1 °F 43% 29.91 in 10.0 mi SW 15.0 mph - N/A   Partly Cloudy
3:53 PM 87.1 °F 87.5 °F 62.1 °F 43% 29.90 in 10.0 mi SSW 10.4 mph - N/A   Clear
4:53 PM 84.9 °F 87.1 °F 66.0 °F 53% 29.90 in 10.0 mi West 12.7 mph - N/A   Partly Cloudy
5:53 PM 82.9 °F 85.4 °F 66.9 °F 58% 29.91 in 10.0 mi West 9.2 mph - N/A   Overcast
6:53 PM 80.1 °F 81.9 °F 64.9 °F 60% 29.91 in 10.0 mi SW 6.9 mph - N/A   Clear
7:53 PM 77.0 °F - 66.0 °F 69% 29.91 in 10.0 mi SSW 5.8 mph - N/A   Clear
8:53 PM 75.9 °F - 66.9 °F 74% 29.92 in 10.0 mi WSW 4.6 mph - N/A   Clear
9:53 PM 73.9 °F - 68.0 °F 82% 29.92 in 10.0 mi SW 5.8 mph - N/A   Clear
10:53 PM 73.9 °F - 69.1 °F 85% 29.93 in 10.0 mi SSW 8.1 mph - N/A   Clear
11:53 PM 72.0 °F - 69.1 °F 91% 29.94 in 10.0 mi SW 5.8 mph - N/A   Clear